Regional Weather Roundup
Issued by NWS

Home | Current Version | Previous Version | Graphics & Text | Print | Product List | Glossary On
Versions: 1 2 3 4 5 6 7 8 9 10 11 12 13 14 15 16 17 18 19 20 21 22 23 24 25 26 27 28 29 30 31 32 33 34 35 36 37 38 39 40 41 42 43 44 45 46 47 48 49 50
000
ASUS43 KDMX 200307
RWRIA

WEATHER ROUNDUP FOR IOWA
NATIONAL WEATHER SERVICE DES MOINES IA
900 PM CST WED NOV 19 2014

NOTE: "FAIR" INDICATES FEW OR NO CLOUDS BELOW 12,000 FEET WITH NO
SIGNIFICANT WEATHER AND/OR OBSTRUCTIONS TO VISIBILITY.

* - THESE STATIONS ARE NOT NWS STATIONS...THUS NOT UNDER NWS
QUALITY CONTROL.  THEY ALSO DO NOT REPORT WEATHER SUCH
AS PRECIPITATION OR FOG.

IAZ001>003-012>014-020>022-031>034-043>046-200400-
   NORTHWEST IOWA

CITY           SKY/WX    TMP DP  RH WIND       PRES   REMARKS
CARROLL *      CLOUDY    21  12  68 W10       30.11S WCI  10
CHEROKEE *     FLURRIES  23  18  80 NW13G21   30.10S WCI  11
DENISON *      CLOUDY    23  14  68 W8        30.11S WCI  14
LE MARS *      CLOUDY    23  14  68 NW8       30.13R WCI  14
ORANGE CITY *  MOCLDY    19  12  73 W9        30.08S WCI   9
SHELDON *      CLOUDY    19  12  73 W10G18    30.06F WCI   8
SIOUX CITY     CLOUDY    26  14  60 NW14      30.14R WCI  14
SPENCER        PTCLDY    20  13  74 W15       30.06F WCI   6
STORM LAKE *   FLURRIES  21  16  79 W14       30.08S WCI   8
$$

IAZ055>058-069>071-079>083-090>094-200400-
   SOUTHWEST IOWA

CITY           SKY/WX    TMP DP  RH WIND       PRES   REMARKS
ATLANTIC *     CLOUDY    25  18  74 NW9       30.14S WCI  15
AUDUBON *      CLOUDY    23  16  74 W8        30.13S WCI  14
CLARINDA *     PTCLDY    23  16  74 NW3       30.19S
COUNCIL BLFS * CLOUDY    25  16  68 NW9       30.14S WCI  15
CRESTON *      CLOUDY    25  16  68 NW16G23   30.14S WCI  12
HARLAN  *      CLOUDY    25  18  74 NW7       30.18R WCI  17
LAMONI         CLOUDY    25  17  72 W10       30.15R WCI  15
RED OAK *      CLOUDY    27  18  69 W9        30.17S WCI  17
SHENANDOAH *   PTCLDY    19  14  79 W6        30.20R WCI  11
$$

IAZ047>049-059>061-072>074-084-200400-
   CENTRAL IOWA

CITY           SKY/WX    TMP DP  RH WIND       PRES   REMARKS
AMES           CLEAR     17   9  70 W9        30.10S WCI   6
ANKENY *       CLEAR     21  12  68 W10       30.12S WCI  10
CHARITON *     CLOUDY    25  14  63 W8G20     30.14S WCI  16
DES MOINES     PTCLDY    22  12  65 W9        30.13R WCI  12
GRINNELL*      CLEAR     19  14  79 W9        30.09S WCI   9
KNOXVILLE *    PTCLDY    23  10  58 W12G17    30.12R WCI  12
MARSHALLTOWN   CLEAR     20  11  68 W13       30.07S WCI   7
PELLA *        PTCLDY    23  12  63 W12       30.14R WCI  12
PERRY *        CLOUDY    21  14  73 W9        30.12S WCI  11
$$

IAZ004>006-015-016-023>025-035-036-200400-
   NORTH CENTRAL IOWA

CITY           SKY/WX    TMP DP  RH WIND       PRES   REMARKS
ALGONA *       MOCLDY    18  10  73 W17       30.05S WCI   2
CLARION *      MOCLDY    18  10  73 W14       30.06S WCI   4
ESTHERVILLE    PTCLDY    17  10  74 W15       30.03F WCI   2
FORT DODGE *   CLOUDY    21  12  68 W7G17     30.09S WCI  13
MASON CITY     CLEAR     16  10  77 W16       30.03S WCI   1
FOREST CITY *  CLOUDY    18  12  79 W9        30.02S WCI   6
IOWA FALLS *     N/A     16  10  79 W12       30.06S WCI   3
$$

IAZ007>011-017>019-026>030-037>042-050>054-066-200400-
   NORTHEAST IOWA

CITY           SKY/WX    TMP DP  RH WIND       PRES   REMARKS
CEDAR RAPIDS   CLOUDY    22  15  75 W15       30.06R WCI   9
CHARLES CITY * CLEAR     19  10  68 W15       30.01S WCI   5
CLINTON *      CLEAR     19  12  73 W12       30.07S WCI   7
DECORAH *      CLOUDY    19  14  79 W10G17    29.96S WCI   8
DUBUQUE        PTCLDY    17  11  77 W12       30.00S WCI   4
MONTICELLO *   MOCLDY    21  14  73 W13       30.03S WCI   9
OELWEIN *      MOCLDY    19  14  79 W15       30.02R WCI   5
WATERLOO       CLEAR     20  11  68 W13       30.04S WCI   7
$$

IAZ064-065-067-068-078-200400-
   EAST CENTRAL IOWA

CITY           SKY/WX    TMP DP  RH WIND       PRES   REMARKS
DAVENPORT      CLEAR     20  13  74 W14       30.07S WCI   7
IOWA CITY      CLOUDY    24  17  74 W13       30.11R WCI  12
MT. PLEASANT * CLOUDY    25  16  68 W9        30.13R WCI  15
MUSCATINE *    MOCLDY    27  16  63 W14       30.11S WCI  15
QUAD CITIES    PTCLDY    23  14  68 W16       30.08R WCI  10
$$

IAZ062-063-075>077-085>089-095>099-200400-
   SOUTHEAST IOWA

CITY           SKY/WX    TMP DP  RH WIND       PRES   REMARKS
BURLINGTON     CLOUDY    25  16  68 W9        30.12R WCI  15
FAIRFIELD *    CLOUDY    25  14  63 NW14G20   30.12S WCI  13
FORT MADISON * CLOUDY    27  18  69 W10       30.14R WCI  17
KEOKUK *       FLURRIES  27  16  63 W10       30.14S WCI  17
OSKALOOSA *    MOCLDY    23  14  68 W12       30.13R WCI  12
CENTERVILLE *  CLOUDY    25  18  74 W9        30.16R WCI  15
OTTUMWA        CLOUDY    24  12  60 NW14      30.13R WCI  12
WASHINGTON *   CLOUDY    25  18  74 W14       30.11S WCI  13
$$

ABBREVIATIONS USED IN REMARKS
   TC - TEMPERATURES IN CELSIUS
  WCI - WIND CHILL INDEX
   HX - HEAT INDEX
  VSB - VISIBILITY
$$



USA.gov is the U.S. government's official web portal to all federal, state and local government web resources and services.